Flag for Italy Weather past 2 weeks in Naples, Italy

Now
63 °F

Passing clouds.


Feels Like: 63 °F
Forecast: 67 / 78 °F
Wind: 2 mph from North

Location: Naples / Capodichino

Current Time: Oct 2, 2014 at 5:40:35 AM

Latest Report: Oct 2, 2014 at 4:50 AM


Visibility: 5 mi

Pressure: 30.15 "Hg

Humidity: 88%

Dew point: 59 °F

Location of NaplesLocation

Historic Weather in Naples — Graph

°F

Naples temperature yesterday

Maximum temperature yesterday: 77 °F (at 1:20 PM)
Minimum temperature yesterday: 61 °F (at 2:50 AM)
Average temperature yesterday: 69 °F

Past Weeks' High & Low Weather Summary

 TemperatureHumidityPressure
High90 °F (Sep 20, 3:20 PM)94% (Sep 21, 5:20 AM)30.39 "Hg (Sep 21, 5:20 AM)
Low57 °F (Sep 27, 6:20 AM)25% (Sep 23, 11:50 AM)29.80 "Hg (Sep 22, 7:20 PM)
Average72 °F64%30.09 "Hg
* Reported Sep 17 3:20 AM — Oct 2 3:50 AM, Naples, Weather by CustomWeather, © 2014

Note: Actual official high and low records may vary slightly from our data, if they occured in-between our weather recording intervals... More about our weather records

Advertising

Naples weather history for previous 24 hours

 ConditionsComfort  
Time TempWeatherWind HumidityBarometerVisibility
3:50 AM
Oct 2
63 °FClear.2 mph88%30.15 "Hg5 mi
3:20 AM64 °FClear.1 mph88%30.15 "Hg5 mi
2:50 AM64 °FClear.1 mph88%30.18 "Hg5 mi
2:20 AM64 °FClear.2 mph83%30.18 "Hg5 mi
1:50 AM64 °FClear.1 mph83%30.18 "Hg5 mi
1:20 AM64 °FClear.2 mph83%30.18 "Hg10 mi
12:50 AM66 °FClear.2 mph83%30.18 "Hg10 mi
12:20 AM66 °FClear.3 mph83%30.18 "Hg10 mi
11:50 PM
Oct 1
68 °FClear.No wind78%30.18 "Hg10 mi
11:20 PM68 °FClear.No wind78%30.18 "Hg10 mi
10:50 PM68 °FClear.2 mph78%30.18 "Hg10 mi
10:20 PM70 °FClear.2 mph73%30.21 "Hg10 mi
9:50 PM70 °FPassing clouds.3 mph73%30.21 "HgN/A
8:50 PM70 °FClear.No wind73%30.18 "Hg10 mi
8:20 PM70 °FClear.1 mph73%30.18 "Hg10 mi
7:50 PM72 °FClear.2 mph69%30.18 "Hg10 mi
7:20 PM72 °FSunny.1 mph69%30.18 "Hg10 mi
6:50 PM72 °FSunny.2 mph69%30.18 "Hg10 mi
6:20 PM73 °FSunny.6 mph65%30.18 "Hg10 mi
5:50 PM73 °FPassing clouds.6 mph65%30.18 "HgN/A
5:20 PM75 °FPassing clouds.8 mph61%30.18 "HgN/A
4:50 PM75 °FPassing clouds.7 mph61%30.21 "HgN/A
4:20 PM77 °FPassing clouds.8 mph57%30.21 "HgN/A
3:50 PM77 °FPassing clouds.9 mph57%30.21 "HgN/A
3:20 PM77 °FPassing clouds.8 mph57%30.21 "HgN/A
2:50 PM77 °FPassing clouds.8 mph57%30.21 "HgN/A
2:20 PM77 °FScattered clouds.7 mph61%30.21 "HgN/A
1:50 PM77 °FScattered clouds.7 mph61%30.21 "HgN/A
1:20 PM77 °FScattered clouds.7 mph61%30.24 "HgN/A
12:50 PM75 °FScattered clouds.6 mph65%30.24 "HgN/A
12:20 PM75 °FScattered clouds.6 mph61%30.24 "HgN/A
11:50 AM75 °FScattered clouds.5 mph61%30.24 "HgN/A
11:20 AM75 °FPassing clouds.5 mph65%30.27 "HgN/A
10:50 AM73 °FPassing clouds.2 mph65%30.27 "HgN/A
10:20 AM72 °FPassing clouds.2 mph65%30.27 "HgN/A
9:50 AM70 °FPassing clouds.3 mph69%30.27 "HgN/A
9:20 AM68 °FSunny.2 mph73%30.27 "Hg10 mi
8:50 AM66 °FPassing clouds.3 mph73%30.27 "HgN/A
8:20 AM64 °FSunny.3 mph73%30.27 "Hg10 mi
7:50 AM63 °FClear.2 mph77%30.27 "Hg10 mi
7:20 AM61 °FPassing clouds.3 mph77%30.27 "HgN/A
6:50 AM61 °FClear.2 mph83%30.24 "Hg10 mi
6:20 AM61 °FClear.2 mph83%30.24 "Hg10 mi
5:50 AM61 °FClear.2 mph83%30.24 "Hg10 mi
5:20 AM61 °FClear.1 mph77%30.24 "Hg10 mi
Weather by CustomWeather, © 2014

See weather overviewHow to use our weather pages